Location: Campillo
(40.8621°N, 4.2488°W)
Time: 16:42:38
(UTC+00:00)

USA 306 - Visible Passes

Search period start: 25 September 2021 00:00
Search period end: 05 October 2021 00:00
Orbit: 564 x 573 km, 54.0° (Epoch: 21 September)

Date Brightness Start Highest point End Pass type
(mag) Time Alt. Az. Time Alt. Az. Time Alt. Az.
25 Sep 5.1 19:18:25 10° NNW 19:20:58 15° N 19:23:26 10° NE visible
25 Sep 5.2 20:57:53 10° NW 20:59:28 20° NNW 20:59:28 20° NNW visible
26 Sep 4.9 19:19:01 10° NNW 19:21:52 17° NNE 19:23:55 13° NE visible
26 Sep 5.2 20:58:24 10° NW 20:59:57 21° NW 20:59:57 21° NW visible
27 Sep 4.7 19:19:32 10° NNW 19:22:43 20° NNE 19:24:27 16° NE visible
27 Sep 5.3 20:58:57 10° NW 21:00:29 21° NW 21:00:29 21° NW visible
28 Sep 4.4 19:20:01 10° NNW 19:23:32 25° NNE 19:25:00 20° NE visible
28 Sep 5.3 20:59:33 10° NW 21:01:03 21° NW 21:01:03 21° NW visible
29 Sep 3.9 19:20:29 10° NW 19:24:18 31° NNE 19:25:37 26° ENE visible
29 Sep 5.4 21:00:15 10° WNW 21:01:40 20° WNW 21:01:40 20° WNW visible
30 Sep 3.5 19:20:58 10° NW 19:25:00 42° NNE 19:26:18 32° ENE visible
30 Sep 5.5 21:01:04 10° WNW 21:02:21 17° W 21:02:21 17° W visible
01 Oct 3.0 19:21:27 10° NW 19:25:40 59° NE 19:27:04 38° E visible
01 Oct 5.7 21:02:05 10° W 21:03:07 14° W 21:03:07 14° W visible
02 Oct 2.8 19:22:00 10° NW 19:26:16 87° NE 19:27:55 36° SE visible
02 Oct 5.9 21:03:39 10° W 21:03:59 11° W 21:03:59 11° W visible
03 Oct 3.2 19:22:36 10° NW 19:26:48 62° SW 19:28:54 28° SSE visible
04 Oct 4.0 19:23:18 10° WNW 19:27:17 40° SW 19:30:00 18° SSE visible
